Flag for United Kingdom Weather past 2 weeks in Poole, England, United Kingdom

Now
61 °F

Clear.


Feels Like: 61 °F
Forecast: 60 / 73 °F
Wind: 9 mph from Northwest

Location: Bournemouth Airport

Current Time: Jul 30, 2014 at 12:35:10 AM

Latest Report: Jul 29, 2014 at 11:50 PM


Visibility: 10 mi

Pressure: 30.01 "Hg

Humidity: 88%

Dew point: 57 °F

Location of PooleLocation

Historic Weather in Poole — Graph

°F

Poole temperature yesterday

Maximum temperature yesterday: 81 °F (at 4:20 PM)
Minimum temperature yesterday: 52 °F (at 5:50 AM)
Average temperature yesterday: 67 °F

Past Weeks' High & Low Weather Summary

 TemperatureHumidityPressure
High86 °F (Jul 26, 4:50 PM)100% (Jul 17, 5:50 AM)30.21 "Hg (Jul 17, 5:50 AM)
Low50 °F (Jul 16, 4:50 AM)24% (Jul 25, 11:50 AM)29.71 "Hg (Jul 19, 5:20 PM)
Average69 °F69%30.01 "Hg
* Reported Jul 14 10:20 PM — Jul 29 10:20 PM, Poole, Weather by CustomWeather, © 2014

Note: Actual official high and low records may vary slightly from our data, if they occured in-between our weather recording intervals... More about our weather records

Advertising

Poole weather history for previous 24 hours

 ConditionsComfort  
Time TempWeatherWind HumidityBarometerVisibility
10:20 PM
Jul 29
64 °FClear.8 mph83%30.01 "Hg10 mi
9:50 PM66 °FSunny.7 mph78%30.01 "Hg10 mi
9:20 PM66 °FSunny.8 mph78%30.01 "Hg10 mi
8:50 PM68 °FPassing clouds.10 mph73%29.98 "HgN/A
8:20 PM70 °FSunny.14 mph69%29.98 "Hg10 mi
7:50 PM72 °FSunny.15 mph65%29.98 "Hg10 mi
7:20 PM73 °FSunny.15 mph61%29.98 "Hg10 mi
6:50 PM75 °FPassing clouds.14 mph57%29.98 "HgN/A
6:20 PM77 °FPassing clouds.15 mph51%29.98 "HgN/A
5:50 PM79 °FPassing clouds.13 mph48%29.98 "HgN/A
5:20 PM79 °FPassing clouds.12 mph48%29.98 "HgN/A
4:50 PM79 °FPassing clouds.12 mph39%29.98 "HgN/A
4:20 PM81 °FPassing clouds.10 mph34%29.98 "HgN/A
3:50 PM77 °FPassing clouds.10 mph42%29.98 "HgN/A
3:20 PM79 °FPassing clouds.10 mph42%29.98 "HgN/A
2:50 PM77 °FPassing clouds.9 mph42%29.98 "HgN/A
1:50 PM79 °FPassing clouds.9 mph39%30.01 "HgN/A
1:20 PM79 °FPassing clouds.9 mph42%30.01 "HgN/A
12:50 PM77 °FPassing clouds.10 mph42%30.01 "HgN/A
12:20 PM75 °FPassing clouds.10 mph47%30.01 "HgN/A
11:50 AM75 °FPassing clouds.10 mph47%30.01 "HgN/A
11:20 AM75 °FPassing clouds.12 mph47%30.04 "HgN/A
10:50 AM73 °FPassing clouds.10 mph50%30.04 "HgN/A
10:20 AM73 °FPassing clouds.10 mph57%30.04 "HgN/A
9:50 AM70 °FPassing clouds.8 mph64%30.04 "HgN/A
9:20 AM70 °FPassing clouds.8 mph64%30.04 "HgN/A
8:50 AM66 °FPassing clouds.8 mph73%30.04 "HgN/A
8:20 AM63 °FPassing clouds.6 mph83%30.04 "HgN/A
7:50 AM61 °FSunny.6 mph88%30.04 "Hg10 mi
7:20 AM59 °FSunny.3 mph88%30.04 "Hg10 mi
6:50 AM57 °FSunny.3 mph94%30.04 "Hg10 mi
6:20 AM55 °FPassing clouds.6 mph94%30.04 "HgN/A
5:50 AM52 °FClear.6 mph94%30.04 "Hg10 mi
5:20 AM54 °FClear.3 mph94%30.04 "Hg10 mi
4:50 AM54 °FClear.3 mph88%30.04 "Hg10 mi
4:20 AM54 °FClear.2 mph88%30.04 "Hg10 mi
3:50 AM54 °FClear.3 mph88%30.04 "Hg10 mi
3:20 AM54 °FClear.5 mph88%30.04 "Hg10 mi
2:50 AM54 °FClear.3 mph94%30.04 "Hg10 mi
2:20 AM54 °FClear.3 mph94%30.04 "Hg10 mi
1:50 AM55 °FClear.3 mph94%30.04 "Hg10 mi
1:20 AM55 °FClear.2 mph88%30.04 "Hg10 mi
12:50 AM57 °FClear.3 mph88%30.04 "Hg10 mi
12:20 AM57 °FClear.2 mph88%30.04 "Hg10 mi
Weather by CustomWeather, © 2014

See weather overviewHow to use our weather pages